Regional Weather Roundup
Issued by NWS Burlington, VT

Home | Current Version | Previous Version | Text Only | Print | Product List | Glossary On
Versions: 1 2 3 4 5 6 7 8 9 10 11 12 13 14 15 16 17 18 19 20 21 22 23 24 25 26 27 28 29 30 31 32 33 34 35 36 37 38 39 40 41 42 43 44 45 46 47 48 49 50
000
ASUS41 KBTV 310730
RWRBTV
VERMONT REGIONAL WEATHER ROUNDUP
NATIONAL WEATHER SERVICE BURLINGTON VT
300 AM EDT MON AUG 31 2015

NOTE: "FAIR" INDICATES FEW OR NO CLOUDS BELOW 12,000 FEET WITH NO
SIGNIFICANT WEATHER AND/OR OBSTRUCTIONS TO VISIBILITY.

* THESE REPORTS ARE NOT UNDER NWS QUALITY CONTROL AND/OR DO NOT
  REPORT WEATHER SUCH AS PRECIPITATION AND FOG.

VTZ001>019-310800-
_____VERMONT_____


CITY           SKY/WX    TMP DP  RH WIND       PRES   REMARKS
BURLINGTON     CLEAR     64  60  87 CALM      29.97F
MONTPELIER     MOCLDY    58  56  93 CALM      30.03F
MORRISVILLE    MOCLDY    58  55  90 CALM      29.99F FOG
ST. JOHNSBURY*   N/A     61  59  93 MISG      29.97S
LYNDONVILLE*   HVY RAIN  60  59  97 CALM      30.01S VSB<1/4
MIDDLEBURY*    FAIR      64  62  93 CALM      29.98S
RUTLAND*       CLEAR     59  54  82 SE7       30.02S
SPRINGFIELD    CLEAR     58  57  97 W3        30.01F
HIGHGATE*      FAIR      65  61  89 S3        29.95S
NEWPORT*       MOCLDY    58  58  99 SW3       29.98F FOG
BENNINGTON     CLEAR     59  57  93 CALM      30.02F FOG
SUTTON*          N/A     59 N/A N/A MISG        N/A
GALLUP MILLS*    N/A     54 N/A N/A MISG        N/A
MT. MANSFIELD*   N/A     55 N/A N/A NW23        N/A

_____LAKE CHAMPLAIN_____


CITY           SKY/WX    TMP DP  RH WIND       PRES   REMARKS
COLCHESTER RF*   N/A     73  63  68 W9          N/A
DIAMOND ISL*     N/A     68  63  83 SE5         N/A

$$

NYZ007-026>031-035-052-083-310800-
_____NORTHERN NEW YORK_____


CITY           SKY/WX    TMP DP  RH WIND       PRES   REMARKS
PLATTSBURGH    CLEAR     61  59  93 SW3       29.96F
SARANAC LAKE   PTCLDY    50  50 100 CALM      30.01S FOG
MASSENA        CLEAR     64  60  87 SW6       29.97S
OGDENSBURG*    MOCLDY    64  63  94 SW6       29.96F
POTSDAM*       MOCLDY    63  63 100 SW6       29.98S
STARK FALLS*     N/A     68 N/A N/A SW3         N/A
WATERTOWN      CLEAR     63  57  81 S5        29.99F
FT DRUM        CLEAR     62  58  86 S7        29.99F
ALBANY         PTCLDY    68  65  90 CALM      30.01F
GLENS FALLS    CLEAR     60  58  92 CALM      30.00S FOG

$$
NHZ002-005-011-310800-
_____NEW HAMPSHIRE_____


CITY           SKY/WX    TMP DP  RH WIND       PRES   REMARKS
LEBANON        CLEAR     59  57  93 S3        29.99F FOG
KEENE          CLOUDY    63  57  82 CALM      30.01F
MT WASHINGTON  FOG       48  48 100 W46         N/A  VSB 0
PLYMOUTH       FOG       58  57  97 CALM      29.98F VSB 1/4
WHITEFIELD     PTCLDY    57  54  89 CALM      29.99F FOG

$$

_____REGIONAL QUEBEC LOCATIONS_____


CITY           SKY/WX    TMP DP  RH WIND       PRES   REMARKS
MONTREAL       CLEAR     66  63  88 SW8       29.93S
QUEBEC CITY    CLOUDY    64  63  94 SW8       29.86F
SHERBROOKE     PTCLDY    61  59  94 VRB2      29.94F

_____REGIONAL ONTARIO LOCATIONS_____


CITY           SKY/WX    TMP DP  RH WIND       PRES   REMARKS
OTTAWA         MOCLDY    64  63  94 W6        29.96S

______KEY______
VSB  - VISIBILITY IN MILES
WCI  - WIND CHILL INDEX
HX   - HEAT INDEX
$$
NNNN


USA.gov is the U.S. government's official web portal to all federal, state and local government web resources and services.